Terminal Aerodrome Forecast
Issued by NWS

Home | Current Version | Previous Version | Text Only | Print | Product List | Glossary On
Versions: 1 2 3 4 5 6 7 8 9 10 11 12 13 14 15 16
000
FTUS43 KFGF 191700
TAFBJI
TAF
KBJI 191725Z 1918/2018 VRB06KT P6SM VCSH OVC008
     FM191900 27008KT P6SM VCSH OVC016
     FM192100 29013G20KT P6SM VCSH OVC025
     FM200200 29013KT P6SM OVC020
     FM201300 30014G21KT P6SM OVC020=

USA.gov is the U.S. government's official web portal to all federal, state and local government web resources and services.